Location: Chiroubles
(46.1812°N, 4.6660°E)
Time: 16:13:01
(UTC+00:00)

Transit 4A - Pass Details

Date: 03 December 2020
Orbit: 864 x 980 km, 66.8° (Epoch: 26 January)

Event Time Altitude Azimuth Distance (km) Brightness Sun altitude
Rises 13:54:15 0° 328° (NNW) 3,688 10.8 14.3°
Reaches altitude 10° 13:57:09 10° 338° (NNW) 2,731 10.1 14.1°
Maximum altitude 14:02:51 33° 42° (NE) 1,567 8.7 13.5°
Drops below altitude 10° 14:08:26 10° 105° (ESE) 2,668 10.1 12.9°
Sets 14:11:12 0° 115° (ESE) 3,591 10.8 12.6°
